EW9167 Weather Reports


time (UTC)temp
C
wind
direction
speed
KPH
gust
KPH
rain 1hr
cm
rain 24hr
cm
rain mn
cm
humidity
%
barometer
mb
20260510202102 22 332 0.0 3.2 0.00 0.00 0.00 64 1014.0
20260510201103 23 135 0.0 3.2 0.00 0.00 0.00 62 1014.0
20260510195102 22 72 0.0 3.2 0.00 0.00 0.00 63 1014.6
20260510194106 23 135 0.0 4.8 0.00 0.00 0.00 62 1014.6
20260510193104 23 127 0.0 4.8 0.00 0.00 0.00 62 1015.0
20260510192105 22 139 0.0 3.2 0.00 0.00 0.00 62 1014.6
20260510191104 22 139 1.6 3.2 0.00 0.00 0.00 62 1015.0
20260510185105 23 108 3.2 4.8 0.00 0.00 0.00 58 1015.0
20260510184104 24 182 3.2 8.0 0.00 0.00 0.00 54 1014.6
20260510183103 25 166 0.0 6.4 0.00 0.00 0.00 52 1014.6
20260510182104 26 223 3.2 6.4 0.00 0.00 0.00 48 1014.6
20260510181103 27 252 0.0 9.7 0.00 0.00 0.00 47 1014.3
20260510180052 28 220 3.2 9.7 0.00 0.00 0.00 46 1014.6
20260510175049 28 224 6.4 9.7 0.00 0.00 0.00 44 1015.0
20260510174049 28 213 1.6 11.3 0.00 0.00 0.00 48 1015.0
20260510173048 27 255 0.0 6.4 0.00 0.00 0.00 45 1015.0
20260510172049 27 251 0.0 9.7 0.00 0.00 0.00 45 1015.0
20260510171046 27 219 1.6 6.4 0.00 0.00 0.00 48 1015.0
20260510170044 26 162 0.0 6.4 0.00 0.00 0.00 52 1015.0
20260510165043 26 348 3.2 8.0 0.00 0.00 0.00 53 1015.0
20260510164041 26 222 1.6 8.0 0.00 0.00 0.00 52 1015.0
20260510163039 26 120 0.0 8.0 0.00 0.00 0.00 54 1015.0
20260510162038 26 183 4.8 6.4 0.00 0.00 0.00 55 1015.0
20260510161522 25 139 0.0 6.4 0.00 0.00 0.00 59 1015.0
20260510160516 25 195 0.0 9.7 0.00 0.00 0.00 54 1015.0
20260510155034 25 146 4.8 6.4 0.00 0.00 0.00 58 1015.0
20260510154036 24 205 0.0 6.4 0.00 0.00 0.00 58 1015.0
20260510153035 24 205 1.6 4.8 0.00 0.00 0.00 60 1015.0
20260510152035 23 180 1.6 8.0 0.00 0.00 0.00 60 1015.0
20260510151033 23 191 3.2 4.8 0.00 0.00 0.00 62 1015.3
20260510150030 22 145 3.2 6.4 0.00 0.00 0.00 62 1015.3
20260510145509 21 151 3.2 6.4 0.00 0.00 0.00 64 1015.3
20260510144032 21 127 0.0 4.8 0.00 0.00 0.00 66 1015.3
20260510143030 20 97 0.0 6.4 0.00 0.00 0.00 66 1015.6
20260510142030 20 127 0.0 6.4 0.00 0.00 0.00 69 1015.3
20260510141035 20 238 1.6 6.4 0.00 0.00 0.00 74 1015.3
20260510140035 19 194 1.6 4.8 0.00 0.00 0.00 73 1015.3
20260510135032 18 178 3.2 6.4 0.00 0.00 0.00 73 1015.3
20260510134034 18 145 3.2 6.4 0.00 0.00 0.00 77 1015.6
20260510133032 17 134 3.2 3.2 0.00 0.00 0.00 77 1015.3
20260510132032 17 126 0.0 3.2 0.00 0.00 0.00 80 1015.3
20260510131035 16 154 1.6 3.2 0.00 0.00 0.00 82 1015.6
20260510130037 16 126 3.2 4.8 0.00 0.00 0.00 83 1015.3
20260510125032 15 109 1.6 3.2 0.00 0.00 0.00 85 1015.3
20260510124032 15 179 3.2 3.2 0.00 0.00 0.00 86 1015.3
20260510123514 15 124 0.0 4.8 0.00 0.00 0.00 89 1015.3
20260510122032 14 126 3.2 3.2 0.00 0.00 0.00 90 1015.0
20260510121032 13 137 1.6 4.8 0.00 0.00 0.00 92 1015.3
20260510120034 13 130 3.2 3.2 0.00 0.00 0.00 92 1014.6
20260510115034 13 147 1.6 3.2 0.00 0.00 0.00 93 1015.3
20260510114033 12 125 3.2 3.2 0.00 0.00 0.00 93 1014.6
20260510113032 12 130 0.0 3.2 0.00 0.00 0.00 93 1014.6
20260510112036 12 160 0.0 3.2 0.00 0.00 0.00 94 1014.6
20260510111035 11 133 3.2 3.2 0.00 0.00 0.00 94 1014.6
20260510110507 11 139 1.6 3.2 0.00 0.00 0.00 94 1014.0
20260510110242 11 130 1.6 3.2 0.00 0.00 0.00 94 1014.6
20260510104034 11 131 3.2 3.2 0.00 0.00 0.00 93 1014.0
20260510103031 10 62 0.0 3.2 0.00 0.00 0.00 93 1014.0
20260510102031 10 118 3.2 3.2 0.00 0.00 0.00 93 1014.0
20260510101030 10 130 3.2 3.2 0.00 0.00 0.00 93 1014.0
20260510100031 10 129 1.6 4.8 0.00 0.00 0.00 93 1014.0
20260510095032 10 104 3.2 6.4 0.00 0.00 0.00 93 1014.0
20260510094032 10 128 3.2 4.8 0.00 0.00 0.00 93 1014.0
20260510093034 10 89 0.0 4.8 0.00 0.00 0.00 93 1013.3
20260510092032 10 127 3.2 4.8 0.00 0.00 0.00 93 1013.6
20260510091032 9 116 3.2 6.4 0.00 0.00 0.00 93 1013.6
20260510090035 8 87 3.2 8.0 0.00 0.00 0.00 92 1013.6
20260510085034 8 125 3.2 3.2 0.00 0.00 0.00 92 1012.9
20260510084036 8 124 3.2 4.8 0.00 0.00 0.00 92 1012.9
20260510083519 8 144 3.2 4.8 0.00 0.00 0.00 92 1012.9
20260510082032 8 118 3.2 3.2 0.00 0.00 0.00 92 1012.9
20260510081509 8 124 3.2 4.8 0.00 0.00 0.00 92 1012.9
20260510080035 8 136 3.2 3.2 0.00 0.00 0.00 92 1012.6
20260510075031 9 117 3.2 4.8 0.00 0.00 0.00 92 1012.6
20260510074032 8 99 0.0 3.2 0.00 0.00 0.00 92 1012.9
20260510073033 8 100 1.6 3.2 0.00 0.00 0.00 91 1012.6
20260510072036 8 128 3.2 3.2 0.00 0.00 0.00 91 1012.3
20260510071035 8 124 3.2 3.2 0.00 0.00 0.00 91 1012.3
20260510070038 8 126 1.6 3.2 0.00 0.00 0.00 91 1012.3
20260510065033 8 127 3.2 3.2 0.00 0.00 0.00 91 1012.3
20260510064033 8 118 1.6 3.2 0.00 0.00 0.00 91 1012.3
20260510063030 8 116 3.2 3.2 0.00 0.00 0.00 91 1012.6
20260510062030 8 132 3.2 4.8 0.00 0.00 0.00 91 1012.6
20260510061028 8 126 3.2 4.8 0.00 0.00 0.00 91 1012.6
20260510060027 8 135 3.2 3.2 0.00 0.00 0.00 90 1012.6
20260510055027 8 121 3.2 3.2 0.00 0.00 0.00 90 1012.6
20260510054028 8 127 3.2 3.2 0.00 0.00 0.00 90 1012.6
20260510053040 9 125 3.2 3.2 0.00 0.00 0.00 90 1012.6
20260510052457 9 113 3.2 3.2 0.00 0.00 0.00 90 1012.6
20260510051023 9 127 1.6 3.2 0.00 0.00 0.00 90 1012.9
20260510050029 9 117 3.2 3.2 0.00 0.00 0.00 90 1012.9
20260510045020 9 120 1.6 3.2 0.00 0.00 0.00 89 1013.3
20260510044921 9 124 1.6 3.2 0.00 0.00 0.00 89 1013.3
20260510043017 9 121 3.2 3.2 0.00 0.00 0.00 89 1012.9
20260510042448 9 114 3.2 3.2 0.00 0.00 0.00 89 1012.9
20260510041017 10 127 3.2 3.2 0.00 0.00 0.00 89 1012.9
20260510040026 10 123 3.2 4.8 0.00 0.00 0.00 89 1012.9
20260510035004 10 109 1.6 3.2 0.00 0.00 0.00 88 1013.3
20260510034004 10 133 3.2 3.2 0.00 0.00 0.00 88 1012.9
20260510033006 10 126 3.2 3.2 0.00 0.00 0.00 88 1012.9
20260510032006 10 118 3.2 3.2 0.00 0.00 0.00 88 1012.6
20260510031451 10 129 3.2 3.2 0.00 0.00 0.00 88 1012.9
20260510030014 11 125 3.2 3.2 0.00 0.00 0.00 87 1012.6
20260510025006 11 134 3.2 3.2 0.00 0.00 0.00 87 1012.6
20260510024003 11 115 3.2 3.2 0.00 0.00 0.00 87 1012.6
20260510023442 11 123 0.0 3.2 0.00 0.00 0.00 86 1012.6
20260510022003 11 117 1.6 3.2 0.00 0.00 0.00 86 1012.6
20260510021002 11 124 3.2 3.2 0.00 0.00 0.00 86 1012.6
20260510020509 11 129 3.2 3.2 0.00 0.00 0.00 86 1012.6
20260510015436 11 119 0.0 3.2 0.00 0.00 0.00 85 1012.6
20260510014002 11 104 1.6 3.2 0.00 0.00 0.00 85 1012.3
20260510013008 12 116 3.2 3.2 0.00 0.00 0.00 84 1012.3
20260510012005 12 114 1.6 3.2 0.00 0.00 0.00 84 1012.3
20260510011004 12 119 1.6 3.2 0.00 0.00 0.00 84 1012.6
20260510010502 12 115 1.6 3.2 0.00 0.00 0.00 83 1012.3
20260510005004 12 131 1.6 3.2 0.00 0.00 0.00 82 1012.3
20260510004006 12 133 3.2 3.2 0.00 0.00 0.00 82 1011.9
20260510003005 12 128 3.2 3.2 0.00 0.00 0.00 81 1012.3
20260510002004 13 129 3.2 3.2 0.00 0.00 0.00 80 1012.3
20260510001005 13 117 1.6 3.2 0.00 0.00 0.00 79 1012.3
20260510000509 14 129 3.2 3.2 0.00 0.00 0.00 78 1011.9
20260509235005 14 123 3.2 3.2 0.00 0.00 0.00 77 1012.3
20260509234004 15 142 3.2 3.2 0.00 0.00 0.00 76 1012.3
20260509233443 15 127 3.2 3.2 0.00 0.00 0.00 76 1012.3
20260509232005 15 125 1.6 3.2 0.00 0.00 0.00 75 1012.3
20260509231004 16 136 3.2 3.2 0.00 0.00 0.00 75 1011.9
20260509230021 16 120 3.2 4.8 0.00 0.00 0.00 74 1011.9
20260509225005 16 135 3.2 3.2 0.00 0.00 0.00 74 1011.9
20260509224006 16 125 3.2 3.2 0.00 0.00 0.00 74 1011.9
20260509223006 16 155 1.6 3.2 0.00 0.00 0.00 73 1011.9
20260509222004 16 125 1.6 3.2 0.00 0.00 0.00 74 1011.9
20260509221009 16 125 3.2 3.2 0.00 0.00 0.00 73 1011.9
20260509220004 16 142 0.0 3.2 0.00 0.00 0.00 73 1012.3
20260509215000 16 132 1.6 4.8 0.00 0.00 0.00 73 1012.3
20260509213959 16 116 1.6 3.2 0.00 0.00 0.00 73 1012.3
20260509212957 16 124 0.0 3.2 0.00 0.00 0.00 72 1012.3
20260509212441 16 145 1.6 3.2 0.00 0.00 0.00 71 1012.3
20260509210955 17 130 0.0 3.2 0.00 0.00 0.00 70 1011.9
20260509205954 17 125 0.0 3.2 0.00 0.00 0.00 69 1012.3
20260509204952 17 58 1.6 3.2 0.00 0.00 0.00 68 1012.3
20260509204437 18 124 1.6 3.2 0.00 0.00 0.00 67 1011.9
20260509202951 19 38 0.0 4.8 0.00 0.00 0.00 64 1011.9